STARLINK-1734, 46325

Orbit data source: Space-Track

STARLINK-1734, 46325 is a payload satellite owned by SpaceX/Seattle (US) in LEO that was launched on Thu, 03 Sep 2020 UTC via an FALCON 9 launch vehicle from the Air Force Eastern Test Range (AFETR). Payload-class satellites include a variety of spacecraft equipped with specific instruments for various scientific and technological missions. These include communications satellites like Starlink; space stations such as the ISS; scientific satellites like the Hubble; Earth observation satellites from companies like Planet Labs, Umbra, and HawkEye 360; GPS; miniature CubeSats for education and research; and military/defense satellites.

Loading next visibility...
Identifier
46325, 2020-062A
Orbit
LEO
Last TLE update
16 hours ago
Origin
Manufacturer
SpaceX/Seattle
Mission
Partially operational Commercial Communications
Bus & Motor
STARLINK, Unknown motor
Mass
260 kg wet, ~248 kg dry
Launch date (UTC)
2020-09-03 (5 years ago)
Launch vehicle
FALCON 9
Launch site
Air Force Eastern Test Range (AFETR)
Object type
Payload
Rocket body
Debris
Shape & HBR
Box + 1 Pan, 8.86 m
Radar Cross Section
13.562 m², Large (>1 m²)

Expand to show TLE details & history

TLE from 16 hours ago
0 STARLINK-1734
1 46325U 20062A   25128.60621843  .00084983  00000-0  30185-2 0  9999
2 46325  53.0390 252.9292 0011347 251.9458 108.0304 15.28258489259669
Epoch: 2025-05-08T14:32Z
Definitive object data (Epoch: 2025-05-08T14:32:57.272Z)
Latitude
-0.00004°
Longitude
168.01623°
Altitude
484.321 km
Speed
7.623 km/s
True Right ascension
16h 51m 43s
True Declination
0° 00' 00"
Sunlit
Object was in full shadow at TLE epoch
Visualization TLE readout
Latitude
51.65676°
Longitude
-123.98736°
Altitude
494.617 km
Speed
7.619 km/s
Apparent Right ascension
00h 17m 00s
Apparent Declination
10° 26' 37"
Sunlit
Object is in daylight
Visualization observer readout
Local Sidereal Time
14:44:00
Azimuth
42.389° NE
Elevation
-29.212°
Doppler factor
1
Orbital elements
Apogee altitude
489.077 km
Perigee altitude
473.511 km
Semi-major axis
6,859.431 km
Eccentricity
0.0011347
Inclination
53.039°
RAAN
252.9292°
Arg. of periapsis
251.9458°
True anomaly
108.15399°
Mean anomaly
108.0304°
Eccentric anomaly
108.0922°
Mean motion
3.82042 °/min
BSTAR
0.0030185
Orbital period
94.23 mins
Loading maneuver chart data...
Loading SW <> Apogee altitude chart data...
Loading historical data...
Loading historical data...
Loading historical data...
Loading historical data...
Loading historical data...
Loading historical data...
Loading historical data...

STARLINK-1734 Visibility forecast

Observer location: undefined°, undefined°

Span
Click to sort rows by Start time (UTC) header in descending order
Start Az.
Max El. time (UTC)
Max El. Az.
Max El.
End time (UTC)
End Az.
6 mins2025-05-09 11:09:08.860Z238.559° WSW2025-05-09 11:11:08.860Z276.609° WNW42.912°2025-05-09 11:15:08.860Z47.23° ENE
4 mins2025-05-09 16:07:08.860Z352.791° N2025-05-09 16:08:08.860Z12.661° NNE18.17°2025-05-09 16:11:08.860Z68.287° E
5 mins2025-05-09 17:45:08.860Z307.779° NW2025-05-09 17:47:08.860Z169.064° S44.758°2025-05-09 17:50:08.860Z132.875° SE
|